Satellite-Ground Cal/Val Site Overpasses Predictions

Prediction of Satellite NPP Overpassing Cal/Val Site: Antarctic Dome C

Ground Cal/Val Site Location: Latitude: -75.10, Longitude: 123.35; Satellite-Ground Site NADIR distance within 100 km.

Table of predicted overpasses for the next 14.0 days since TLE Epoch: 6/30/2015
Interval Starting Time Ending Time Minimum Distance Time Minimum Distance (km)
1 07/03/2015 14:59:22 07/03/2015 14:59:51 07/03/2015 14:59:36 18.72
2 07/04/2015 14:40:39 07/04/2015 14:40:53 07/04/2015 14:40:46 88.29
3 07/05/2015 07:42:11 07/05/2015 07:42:38 07/05/2015 07:42:25 39.96
4 07/06/2015 07:23:24 07/06/2015 07:23:45 07/06/2015 07:23:35 70.12
5 07/08/2015 15:05:38 07/08/2015 15:06:02 07/08/2015 15:05:50 55.91
6 07/09/2015 14:46:47 07/09/2015 14:47:12 07/09/2015 14:46:59 53.33
7 07/10/2015 07:48:29 07/10/2015 07:48:48 07/10/2015 07:48:38 75.18
8 07/11/2015 07:29:34 07/11/2015 07:30:02 07/11/2015 07:29:48 32.70


NCC Satellite Cal/Val Overpasses Prediction Service
